Wind_Speed
51 53 57 58 62 65 65 62 61 56 55 50 49 46 42 40 39 38 36 36 37 34 35 32 29 26 25 24 24 22 23 20
46 49 50 51 51 52 53 55 57 60 60 55 53 51 48 45 43 42 41 39 39 37 34 33 30 30 27 26 25 23 21 20
46 51 53 54 54 53 52 52 53 56 58 58 57 56 58 54 47 47 45 43 41 40 38 36 33 32 30 29 27 24 21 19
46 46 50 57 60 59 58 57 56 53 54 57 60 60 58 55 55 49 49 47 45 42 40 37 36 34 32 29 28 27 23 20
47 49 48 50 57 63 66 65 64 61 58 57 57 57 61 62 56 56 53 49 50 47 43 41 37 37 34 30 28 30 26 22
53 51 52 53 53 57 63 69 70 70 67 64 62 60 61 64 67 64 63 59 55 51 48 47 45 42 36 33 31 32 32 27
57 57 57 58 56 55 58 63 70 75 76 75 69 67 65 63 63 64 62 63 58 54 51 49 49 46 42 38 35 32 31 32
63 63 62 63 64 65 60 61 68 71 78 82 81 77 71 69 66 62 62 59 59 56 52 50 51 48 46 44 40 35 32 31
69 71 70 70 69 67 67 65 64 72 74 78 83 85 83 79 73 69 62 61 59 57 52 49 48 52 48 44 42 37 35 32
79 79 79 78 77 76 73 71 70 71 74 78 83 85 88 85 81 78 75 68 58 54 53 47 49 46 52 48 43 39 36 32
85 85 85 86 86 85 82 77 75 75 74 78 80 84 84 84 84 83 80 75 67 56 52 48 46 45 48 49 43 42 37 31
87 89 89 88 87 86 83 81 78 76 76 78 81 85 84 77 77 82 83 77 72 62 53 53 48 48 44 44 46 44 39 32
87 86 85 83 84 81 79 77 76 75 75 80 83 83 84 73 68 71 72 76 75 68 61 56 47 47 43 41 45 41 38 33
87 85 84 82 81 77 73 71 72 75 76 79 83 83 80 73 67 66 68 67 78 71 69 55 58 53 49 48 47 38 35 36
88 83 80 80 76 74 68 64 65 66 69 74 75 77 72 66 66 65 65 69 77 76 71 56 55 52 54 52 48 43 44 40
83 80 78 74 70 64 56 55 53 57 61 66 67 68 68 63 64 60 62 72 79 79 75 71 59 65 47 72 62 53 47 45
80 73 65 63 59 53 52 49 51 57 59 61 62 64 65 62 65 64 61 70 77 81 85 81 60 67 70 67 68 62 50 46
55 54 56 56 53 53 51 51 54 58 59 58 57 59 60 58 62 66 60 71 78 82 94 93 76 74 70 63 71 62 53 52
46 47 53 52 52 51 49 48 51 53 53 52 54 54 54 53 57 63 60 71 83 86 96 97 87 79 79 63 65 62 59 61
43 48 52 49 48 48 44 44 48 51 47 45 48 47 50 50 53 61 61 73 87 91 106 98 94 94 88 75 71 67 63 61
Wind_Direction
276 275 275 274 274 271 266 267 262 262 262 261 261 263 265 264 265 267 266 266 264 267 268 271 274 270 279 278 277 275 279 277
286 281 280 278 277 276 272 270 266 263 261 259 260 260 259 264 263 260 263 262 264 262 263 265 267 273 276 278 276 273 276 281
289 286 284 283 282 279 274 270 268 265 261 256 257 257 258 258 259 260 259 260 262 261 258 258 262 266 271 275 275 271 264 271
289 284 280 277 276 276 275 274 272 268 264 259 255 253 254 253 253 254 254 257 256 257 254 254 258 263 267 271 272 269 263 266
288 287 282 281 275 272 272 271 269 266 263 262 256 251 249 249 246 250 252 253 255 252 252 253 256 263 264 269 266 266 264 265
289 286 286 285 286 278 271 268 267 266 264 260 259 257 252 247 249 248 249 250 252 250 250 253 256 259 262 262 265 268 265 261
287 287 289 289 287 282 275 271 268 263 263 262 257 256 254 252 250 247 249 249 248 248 250 251 253 255 258 261 265 267 270 260
288 288 286 287 287 287 278 271 264 265 263 260 260 257 251 252 252 248 247 244 248 248 249 249 250 251 253 258 260 266 269 262
290 289 289 289 287 285 284 279 270 262 260 262 259 258 258 251 248 250 245 244 243 247 246 247 245 243 248 251 256 262 265 263
291 292 291 290 288 288 282 277 272 266 261 258 258 257 257 255 250 246 248 245 243 240 241 239 243 241 241 246 250 255 263 266
291 289 289 288 287 286 284 280 277 271 265 261 259 257 253 254 254 248 245 245 244 239 236 233 237 241 243 244 243 249 257 260
287 286 285 284 284 283 281 280 279 275 270 266 261 259 257 254 251 251 244 243 240 236 230 228 230 236 243 250 245 244 251 256
284 283 283 283 281 280 281 279 277 274 270 265 266 264 265 262 254 246 244 237 236 233 226 223 219 236 246 252 247 240 242 247
290 291 288 286 284 284 282 280 275 271 269 266 264 264 263 261 254 245 240 232 230 223 222 220 223 231 247 250 249 239 238 242
291 290 287 285 284 284 284 277 271 270 268 265 265 266 264 260 254 247 236 225 223 217 217 211 209 231 240 246 245 243 235 236
291 290 289 287 285 287 282 277 277 270 265 265 265 265 262 257 251 243 230 220 218 212 206 200 195 201 215 239 243 245 237 233
292 291 288 287 289 289 286 284 280 277 274 270 268 265 261 255 249 244 226 217 215 209 197 200 198 203 213 224 240 241 231 229
287 284 286 290 294 290 288 285 280 277 277 277 273 267 261 254 244 242 228 213 210 208 194 196 195 196 205 215 229 231 233 231
281 290 291 295 292 288 286 281 274 275 279 275 271 266 260 254 243 239 226 210 208 206 194 194 196 203 209 218 219 225 233 238
287 293 296 297 295 294 289 280 279 281 283 274 274 270 264 256 245 235 224 207 206 204 196 197 200 206 213 213 215 218 227 238
Height
10722 10722 10721 10720 10722 10724 10726 10729 10733 10735 10739 10741 10743 10745 10745 10746 10748 10749 10750 10751 10748 10750 10749 10749 10748 10748 10748 10747 10746 10745 10744 10745
10712 10712 10711 10710 10710 10710 10712 10713 10717 10721 10725 10729 10733 10734 10736 10739 10738 10739 10741 10742 10742 10743 10743 10743 10742 10743 10743 10742 10740 10740 10740 10740
10703 10701 10699 10697 10696 10697 10698 10699 10701 10704 10708 10714 10719 10722 10723 10727 10728 10731 10731 10734 10735 10736 10737 10736 10736 10736 10737 10738 10736 10735 10735 10735
10696 10693 10691 10688 10685 10684 10684 10685 10686 10689 10692 10696 10702 10706 10710 10713 10715 10718 10722 10724 10725 10727 10729 10730 10730 10729 10730 10732 10732 10730 10730 10729
10685 10682 10679 10677 10676 10673 10671 10670 10670 10672 10676 10678 10684 10689 10692 10696 10700 10704 10709 10712 10715 10718 10720 10722 10724 10724 10724 10726 10726 10725 10725 10724
10669 10667 10665 10664 10662 10659 10656 10655 10653 10653 10657 10662 10665 10671 10675 10680 10686 10690 10694 10699 10703 10707 10710 10713 10716 10717 10717 10719 10720 10719 10719 10719
10654 10652 10649 10646 10645 10644 10640 10638 10636 10636 10637 10641 10647 10652 10656 10663 10669 10674 10680 10684 10689 10694 10698 10703 10706 10709 10709 10711 10712 10712 10712 10712
10638 10636 10634 10632 10628 10622 10622 10621 10619 10617 10618 10620 10623 10629 10636 10643 10649 10656 10663 10668 10674 10680 10686 10691 10694 10698 10700 10701 10703 10705 10706 10705
10620 10616 10614 10610 10608 10605 10602 10600 10600 10600 10598 10598 10603 10608 10613 10622 10628 10635 10643 10650 10657 10666 10672 10677 10680 10684 10688 10690 10694 10697 10699 10698
10598 10594 10590 10586 10582 10580 10578 10577 10577 10576 10576 10577 10578 10582 10588 10595 10605 10614 10620 10631 10641 10650 10658 10663 10668 10670 10674 10678 10682 10686 10690 10690
10577 10572 10569 10564 10558 10556 10554 10554 10553 10553 10554 10553 10551 10553 10562 10569 10578 10591 10599 10610 10623 10634 10643 10650 10655 10659 10662 10666 10670 10675 10680 10683
10557 10551 10546 10541 10536 10531 10530 10529 10526 10525 10525 10525 10527 10526 10531 10546 10554 10561 10576 10591 10603 10615 10626 10634 10641 10645 10651 10657 10661 10664 10669 10674
10532 10526 10521 10518 10513 10510 10507 10505 10501 10500 10498 10496 10497 10501 10504 10518 10529 10539 10549 10568 10580 10596 10606 10618 10628 10636 10640 10649 10653 10655 10658 10663
10505 10499 10494 10488 10485 10484 10485 10483 10477 10470 10471 10471 10469 10474 10481 10491 10504 10515 10526 10542 10555 10573 10586 10600 10611 10619 10631 10637 10646 10648 10649 10652
10480 10474 10468 10464 10462 10461 10460 10457 10453 10451 10447 10445 10446 10448 10458 10468 10477 10487 10499 10516 10529 10549 10567 10582 10590 10597 10612 10624 10633 10640 10635 10644
10457 10450 10445 10441 10440 10439 10436 10433 10432 10428 10427 10426 10428 10428 10432 10443 10450 10461 10474 10490 10504 10526 10547 10557 10564 10581 10590 10607 10614 10620 10627 10632
10434 10429 10424 10422 10421 10419 10416 10414 10412 10408 10407 10406 10406 10406 10410 10419 10426 10438 10453 10468 10484 10501 10522 10535 10545 10558 10571 10582 10595 10605 10611 10620
10417 10413 10410 10408 10406 10402 10400 10399 10395 10390 10389 10388 10387 10387 10389 10396 10404 10414 10434 10448 10462 10479 10496 10512 10524 10535 10555 10565 10577 10590 10600 10606
10406 10402 10399 10396 10392 10388 10387 10382 10377 10374 10375 10371 10368 10367 10369 10375 10383 10393 10411 10426 10438 10455 10472 10491 10508 10521 10537 10550 10560 10577 10585 10592
10397 10393 10387 10383 10377 10374 10370 10366 10363 10360 10357 10354 10352 10352 10352 10357 10365 10372 10387 10403 10417 10431 10454 10473 10493 10509 10523 10537 10547 10559 10568 10576